Voltar ao catálogo

FIRESAT3

AtivoCiênciaSSO
NORAD 69890·PAYLOAD·🇺🇸 United States

Lançado Jul 7, 2026 de Vandenberg Space Force Base

Loading…

Próximas Passagens (próximas 24 horas)

TLE

AtualizadoSource: Space-Track

Época: Sep 13, 2026, 16:20 UTC

1 69890U 26156X   26256.68113530  .00000886  00000-0  92442-4 0  9997
2 69890  97.7463 156.0243 0005177 298.7239  61.3460 14.92214603 10194

Acompanhe FIRESAT3 em tempo real com AllMySat

Download on the App Store